This is the latest recevied weather packets stored in our database for station/object K8GLX. If no packets are shown the sender has not sent any weather packets the latest 10 day(s).
| Time | Temp. | Humidity | Pressure | Rain* | Wind** | Luminosity | Snow |
|---|---|---|---|---|---|---|---|
| 1777087628 | 12.22° C | 92% | 1009.3 hPa | 1.78 mm | - | 0 W/m² | - |
| 1777087334 | 12.22° C | 92% | 1009.5 hPa | 1.52 mm | - | 0 W/m² | - |
| 1777087028 | 12.22° C | 91% | 1009.3 hPa | 1.52 mm | - | 0 W/m² | - |
| 1777086739 | 12.22° C | 91% | 1009.3 hPa | 1.27 mm | - | 0 W/m² | - |
| 1777086428 | 12.78° C | 90% | 1009.1 hPa | 1.02 mm | - | 0 W/m² | - |
| 1777086133 | 12.78° C | 89% | 1009 hPa | 1.02 mm | - | 0 W/m² | - |
| 1777085828 | 13.33° C | 88% | 1008.9 hPa | 0.76 mm | - | 0 W/m² | - |
| 1777085534 | 13.33° C | 87% | 1009 hPa | 0.51 mm | - | 0 W/m² | - |
| 1777085228 | 13.89° C | 85% | 1009.1 hPa | 0.51 mm | - | 0 W/m² | - |
| 1777084934 | 13.89° C | 84% | 1008.7 hPa | 0.25 mm | - | 0 W/m² | - |
| 1777084628 | 14.44° C | 83% | 1008.9 hPa | 0 mm | - | 0 W/m² | - |
| 1777084461 | 14.44° C | 83% | 1008.8 hPa | 0 mm | - | 0 W/m² | - |
| 1777084027 | 14.44° C | 82% | 1008.7 hPa | 0 mm | - | 0 W/m² | - |
| 1777083733 | 14.44° C | 81% | 1008.6 hPa | 0 mm | - | 0 W/m² | - |
| 1777083429 | 14.44° C | 81% | 1008.4 hPa | 0 mm | - | 0 W/m² | - |
| 1777083259 | 15° C | 80% | 1008.5 hPa | 0 mm | - | 0 W/m² | - |
| 1777082828 | 15.56° C | 77% | 1008.5 hPa | 0 mm | - | 0 W/m² | - |
| 1777082534 | 15.56° C | 74% | 1008.4 hPa | 0 mm | - | 0 W/m² | - |
| 1777082228 | 15° C | 74% | 1008.2 hPa | 0 mm | - | 0 W/m² | - |
| 1777081933 | 15° C | 74% | 1008.1 hPa | 0 mm | - | 0 W/m² | - |
| 1777081628 | 15° C | 75% | 1008 hPa | 0 mm | - | 0 W/m² | - |
| 1777081334 | 15° C | 75% | 1008.2 hPa | 0 mm | - | 0 W/m² | - |
| 1777081028 | 15° C | 75% | 1008.1 hPa | 0 mm | - | 0 W/m² | - |
| 1777080734 | 14.44° C | 75% | 1008 hPa | 0 mm | - | 0 W/m² | - |
| 1777080428 | 14.44° C | 76% | 1008 hPa | 0 mm | - | 0 W/m² | - |
* Rain latest hour (hover to see other rain measurements)
** Current wind speed in m/s (hover to see current wind gust speed)